Time,TemperatureF,DewpointF,PressureIn,WindDirection,WindDirectionDegrees,WindSpeedMPH,WindSpeedGustMPH,Humidity,HourlyPrecipIn,Conditions,Clouds,dailyrainin,SoftwareType,DateUTC
2013-12-03 00:22:00,30.0,24.0,29.61,NNE,22,17.0,-999.0,78,-99.99,,,-99.99,,2013-12-03 07:22:00,
2013-12-03 00:42:00,28.0,23.0,29.61,NNE,29,20.0,-999.0,81,-99.99,,,-99.99,,2013-12-03 07:42:00,
2013-12-03 00:52:00,27.0,22.0,29.63,NE,44,19.0,-999.0,80,-99.99,,,-99.99,,2013-12-03 07:52:00,
2013-12-03 01:22:00,24.0,20.0,29.64,North,360,22.0,-999.0,85,-99.99,,,-99.99,,2013-12-03 08:22:00,
2013-12-03 01:42:00,23.0,20.0,29.64,North,11,19.0,-999.0,87,-99.99,,,-99.99,,2013-12-03 08:42:00,
2013-12-03 01:53:00,23.0,20.0,29.66,NE,34,20.0,-999.0,88,-99.99,,,-99.99,,2013-12-03 08:53:00,
2013-12-03 02:11:00,23.0,20.0,29.66,NE,34,20.0,-999.0,87,-99.99,,,-99.99,,2013-12-03 09:11:00,
2013-12-03 02:21:00,24.0,20.0,29.66,NE,36,17.0,-999.0,84,-99.99,,,-99.99,,2013-12-03 09:21:00,
2013-12-03 02:43:00,24.0,19.0,29.64,NE,51,21.0,-999.0,82,-99.99,,,-99.99,,2013-12-03 09:43:00,
2013-12-03 02:54:00,23.0,19.0,29.68,NE,36,18.0,-999.0,85,-99.99,,,-99.99,,2013-12-03 09:54:00,
2013-12-03 03:13:00,23.0,19.0,29.69,NNE,27,17.0,-999.0,86,-99.99,,,-99.99,,2013-12-03 10:13:00,
2013-12-03 03:23:00,23.0,18.0,29.70,NNE,28,17.0,-999.0,82,-99.99,,,-99.99,,2013-12-03 10:23:00,
2013-12-03 03:42:00,23.0,17.0,29.73,NNE,24,16.0,-999.0,79,-99.99,,,-99.99,,2013-12-03 10:42:00,
2013-12-03 03:53:00,23.0,18.0,29.70,NNE,27,19.0,-999.0,80,-99.99,,,-99.99,,2013-12-03 10:53:00,
2013-12-03 04:22:00,21.0,17.0,29.69,NE,37,21.0,-999.0,86,-99.99,,,-99.99,,2013-12-03 11:22:00,
2013-12-03 04:42:00,20.0,16.0,29.70,NE,38,20.0,-999.0,86,-99.99,,,-99.99,,2013-12-03 11:42:00,
2013-12-03 04:52:00,20.0,16.0,29.70,ENE,67,21.0,-999.0,86,-99.99,,,-99.99,,2013-12-03 11:52:00,
2013-12-03 05:11:00,19.0,16.0,29.69,NE,42,21.0,-999.0,86,-99.99,,,-99.99,,2013-12-03 12:11:00,
2013-12-03 05:21:00,18.0,15.0,29.72,East,85,23.0,-999.0,87,-99.99,,,-99.99,,2013-12-03 12:21:00,
2013-12-03 05:42:00,18.0,15.0,29.72,NE,36,22.0,-999.0,86,-99.99,,,-99.99,,2013-12-03 12:42:00,
2013-12-03 05:52:00,18.0,15.0,29.75,NNE,29,21.0,-999.0,86,-99.99,,,-99.99,,2013-12-03 12:52:00,
2013-12-03 06:21:00,17.0,14.0,29.77,NE,51,22.0,-999.0,87,-99.99,,,-99.99,,2013-12-03 13:21:00,
2013-12-03 06:42:00,16.0,13.0,29.76,NNE,23,19.0,-999.0,86,-99.99,,,-99.99,,2013-12-03 13:42:00,
2013-12-03 06:52:00,16.0,13.0,29.76,NE,42,18.0,-999.0,86,-99.99,,,-99.99,,2013-12-03 13:52:00,
2013-12-03 07:22:00,14.0,10.0,29.78,NE,49,23.0,-999.0,85,-99.99,,,-99.99,,2013-12-03 14:22:00,
2013-12-03 07:42:00,14.0,11.0,29.81,ENE,57,22.0,-999.0,86,-99.99,,,-99.99,,2013-12-03 14:42:00,
2013-12-03 07:52:00,14.0,10.0,29.84,NE,42,22.0,-999.0,83,-99.99,,,-99.99,,2013-12-03 14:52:00,
2013-12-03 08:21:00,13.0,9.0,29.85,NNE,32,21.0,-999.0,82,-99.99,,,-99.99,,2013-12-03 15:21:00,
2013-12-03 08:43:00,13.0,8.0,29.86,NE,34,21.0,-999.0,81,-99.99,,,-99.99,,2013-12-03 15:43:00,
2013-12-03 08:53:00,13.0,8.0,29.89,NNE,27,21.0,-999.0,81,-99.99,,,-99.99,,2013-12-03 15:53:00,
2013-12-03 09:23:00,13.0,8.0,29.93,NE,42,18.0,-999.0,80,-99.99,,,-99.99,,2013-12-03 16:23:00,
2013-12-03 09:52:00,11.0,7.0,29.95,NE,54,17.0,-999.0,83,-99.99,,,-99.99,,2013-12-03 16:52:00,
2013-12-03 10:22:00,11.0,7.0,29.99,NNE,28,19.0,-999.0,83,-99.99,,,-99.99,,2013-12-03 17:22:00,
2013-12-03 10:42:00,11.0,7.0,30.00,North,11,15.0,-999.0,84,-99.99,,,-99.99,,2013-12-03 17:42:00,
2013-12-03 10:52:00,11.0,7.0,29.99,NNE,26,16.0,-999.0,84,-99.99,,,-99.99,,2013-12-03 17:52:00,
2013-12-03 11:11:00,11.0,7.0,29.99,NE,38,19.0,-999.0,84,-99.99,,,-99.99,,2013-12-03 18:11:00,
2013-12-03 11:22:00,11.0,7.0,29.95,NE,38,18.0,-999.0,83,-99.99,,,-99.99,,2013-12-03 18:22:00,
2013-12-03 11:42:00,11.0,7.0,30.00,NNE,22,16.0,-999.0,83,-99.99,,,-99.99,,2013-12-03 18:42:00,
2013-12-03 11:53:00,12.0,8.0,29.98,NNE,24,16.0,-999.0,84,-99.99,,,-99.99,,2013-12-03 18:53:00,
2013-12-03 12:11:00,11.0,7.0,30.00,NNE,17,15.0,-999.0,83,-99.99,,,-99.99,,2013-12-03 19:11:00,
2013-12-03 12:21:00,11.0,7.0,30.00,NNE,17,15.0,-999.0,83,-99.99,,,-99.99,,2013-12-03 19:21:00,
2013-12-03 12:52:00,11.0,6.0,29.98,NE,34,16.0,-999.0,80,-99.99,,,-99.99,,2013-12-03 19:52:00,
2013-12-03 13:22:00,11.0,6.0,30.00,NNW,329,19.0,-999.0,79,-99.99,,,-99.99,,2013-12-03 20:22:00,
2013-12-03 13:42:00,10.0,5.0,30.02,NNE,22,18.0,-999.0,79,-99.99,,,-99.99,,2013-12-03 20:42:00,
2013-12-03 13:52:00,10.0,5.0,30.03,North,5,19.0,-999.0,80,-99.99,,,-99.99,,2013-12-03 20:52:00,
2013-12-03 14:11:00,10.0,5.0,30.05,NNE,29,16.0,-999.0,79,-99.99,,,-99.99,,2013-12-03 21:11:00,
2013-12-03 14:21:00,10.0,5.0,30.04,NNE,30,19.0,-999.0,79,-99.99,,,-99.99,,2013-12-03 21:21:00,
2013-12-03 14:44:00,10.0,5.0,30.05,NNE,18,19.0,-999.0,80,-99.99,,,-99.99,,2013-12-03 21:44:00,
2013-12-03 14:53:00,10.0,5.0,30.05,NNE,13,19.0,-999.0,78,-99.99,,,-99.99,,2013-12-03 21:53:00,
2013-12-03 15:22:00,9.0,3.0,30.08,NE,49,20.0,-999.0,75,-99.99,,,-99.99,,2013-12-03 22:22:00,
2013-12-03 15:53:00,9.0,2.0,30.07,NNE,21,20.0,-999.0,74,-99.99,,,-99.99,,2013-12-03 22:53:00,
2013-12-03 16:12:00,9.0,2.0,30.09,NE,43,19.0,-999.0,73,-99.99,,,-99.99,,2013-12-03 23:12:00,
2013-12-03 16:22:00,8.0,1.0,30.11,NE,40,20.0,-999.0,73,-99.99,,,-99.99,,2013-12-03 23:22:00,
2013-12-03 16:42:00,8.0,1.0,30.13,NNE,26,19.0,-999.0,71,-99.99,,,-99.99,,2013-12-03 23:42:00,
2013-12-03 16:52:00,8.0,0.0,30.13,NE,40,21.0,-999.0,70,-99.99,,,-99.99,,2013-12-03 23:52:00,
2013-12-03 17:11:00,7.0,0.0,30.14,NE,47,20.0,-999.0,71,-99.99,,,-99.99,,2013-12-04 00:11:00,
2013-12-03 17:22:00,7.0,0.0,30.15,NE,55,20.0,-999.0,74,-99.99,,,-99.99,,2013-12-04 00:22:00,
2013-12-03 17:42:00,6.0,-1.0,30.15,NE,47,23.0,-999.0,73,-99.99,,,-99.99,,2013-12-04 00:42:00,
2013-12-03 17:52:00,6.0,-1.0,30.15,NE,47,23.0,-999.0,73,-99.99,,,-99.99,,2013-12-04 00:52:00,
2013-12-03 18:11:00,6.0,-2.0,30.19,NNE,27,21.0,-999.0,70,-99.99,,,-99.99,,2013-12-04 01:11:00,
2013-12-03 18:21:00,6.0,-1.0,30.20,NE,40,20.0,-999.0,72,-99.99,,,-99.99,,2013-12-04 01:21:00,
2013-12-03 18:42:00,6.0,-1.0,30.21,NNE,32,18.0,-999.0,72,-99.99,,,-99.99,,2013-12-04 01:42:00,
2013-12-03 18:52:00,6.0,0.0,30.22,NE,35,20.0,-999.0,74,-99.99,,,-99.99,,2013-12-04 01:52:00,
2013-12-03 19:11:00,5.0,-1.0,30.23,NNE,24,20.0,-999.0,75,-99.99,,,-99.99,,2013-12-04 02:11:00,
2013-12-03 19:21:00,5.0,-1.0,30.23,NNE,32,20.0,-999.0,74,-99.99,,,-99.99,,2013-12-04 02:21:00,
2013-12-03 19:42:00,5.0,-1.0,30.24,NE,34,18.0,-999.0,75,-99.99,,,-99.99,,2013-12-04 02:42:00,
2013-12-03 19:52:00,5.0,-1.0,30.26,NNE,15,18.0,-999.0,75,-99.99,,,-99.99,,2013-12-04 02:52:00,
2013-12-03 20:11:00,5.0,-1.0,30.26,North,355,15.0,-999.0,74,-99.99,,,-99.99,,2013-12-04 03:11:00,
2013-12-03 20:21:00,5.0,-1.0,30.26,North,355,15.0,-999.0,74,-99.99,,,-99.99,,2013-12-04 03:21:00,
2013-12-03 20:44:00,4.0,-3.0,30.27,NNE,16,16.0,-999.0,73,-99.99,,,-99.99,,2013-12-04 03:44:00,
2013-12-03 20:54:00,4.0,-3.0,30.28,North,360,13.0,-999.0,73,-99.99,,,-99.99,,2013-12-04 03:54:00,
2013-12-03 21:13:00,4.0,-3.0,30.29,North,355,12.0,-999.0,72,-99.99,,,-99.99,,2013-12-04 04:13:00,
2013-12-03 21:23:00,4.0,-3.0,30.29,NNE,18,14.0,-999.0,72,-99.99,,,-99.99,,2013-12-04 04:23:00,
2013-12-03 21:52:00,4.0,-2.0,30.31,NE,36,13.0,-999.0,74,-99.99,,,-99.99,,2013-12-04 04:52:00,
2013-12-03 22:12:00,4.0,-3.0,30.31,NNE,24,13.0,-999.0,73,-99.99,,,-99.99,,2013-12-04 05:12:00,
2013-12-03 22:22:00,4.0,-2.0,30.32,NNE,19,14.0,-999.0,74,-99.99,,,-99.99,,2013-12-04 05:22:00,
2013-12-03 22:42:00,4.0,-2.0,30.33,NNE,19,12.0,-999.0,75,-99.99,,,-99.99,,2013-12-04 05:42:00,
2013-12-03 22:53:00,4.0,-3.0,30.33,North,355,11.0,-999.0,73,-99.99,,,-99.99,,2013-12-04 05:53:00,
2013-12-03 23:22:00,4.0,-3.0,30.33,North,11,11.0,-999.0,71,-99.99,,,-99.99,,2013-12-04 06:22:00,
2013-12-03 23:42:00,4.0,-4.0,30.35,NNE,26,10.0,-999.0,70,-99.99,,,-99.99,,2013-12-04 06:42:00,
2013-12-03 23:52:00,4.0,-4.0,30.34,North,10,12.0,-999.0,70,-99.99,,,-99.99,,2013-12-04 06:52:00,